Date,Time,Wetness (Wet Dry or Ice),Wind Speed (m/s),Temperature (C),Humidity (%),Pressure (mb),Radiation (W/m^2)
2020-07-10,00:25:00,DRY,10.50,16.90,14.5,779.00,1.5
2020-07-10,00:30:00,DRY,8.93,16.93,14.3,779.00,1.3
2020-07-10,00:35:00,DRY,10.15,17.20,14.0,779.00,1.6
2020-07-10,00:40:00,DRY,9.63,17.00,14.3,779.00,1.6
2020-07-10,00:45:00,DRY,7.10,16.80,15.5,779.00,1.2
2020-07-10,00:50:00,DRY,9.03,16.90,15.0,778.00,1.0
2020-07-10,00:55:00,DRY,9.70,17.20,14.0,778.50,1.4
2020-07-10,01:00:00,DRY,9.67,16.93,15.3,778.33,1.3
2020-07-10,01:05:00,DRY,8.50,16.95,15.0,778.00,1.2
2020-07-10,01:10:00,DRY,8.77,16.83,16.0,778.00,1.6
2020-07-10,01:15:00,DRY,8.15,16.80,16.5,778.00,1.6
2020-07-10,01:20:00,DRY,8.37,16.63,18.0,778.00,1.0
2020-07-10,01:25:00,DRY,8.65,16.65,18.5,778.00,0.6
2020-07-10,01:30:00,DRY,8.90,16.63,19.0,778.00,1.2
2020-07-10,01:35:00,DRY,8.25,16.40,20.5,778.00,1.4
2020-07-10,01:40:00,DRY,8.33,16.77,17.3,778.00,1.3
2020-07-10,01:45:00,DRY,7.70,16.60,19.5,778.00,1.5
2020-07-10,01:50:00,DRY,9.90,16.73,17.7,778.00,1.1
2020-07-10,01:55:00,DRY,10.10,17.00,15.5,778.00,1.4
2020-07-10,02:00:00,DRY,9.37,17.07,14.7,778.00,0.9
2020-07-10,02:05:00,DRY,8.55,16.90,15.5,778.00,1.2
2020-07-10,02:10:00,DRY,9.13,16.70,16.7,778.00,1.6
2020-07-10,02:15:00,DRY,8.05,16.55,18.5,778.00,1.0
2020-07-10,02:20:00,DRY,9.03,16.73,16.3,778.00,1.2
2020-07-10,02:25:00,DRY,8.70,16.90,15.5,777.50,0.8
2020-07-10,02:30:00,DRY,9.73,16.67,18.3,778.00,1.3
2020-07-10,02:35:00,DRY,8.85,16.60,19.0,777.00,1.0
2020-07-10,02:40:00,DRY,9.70,16.63,19.7,777.00,1.2
2020-07-10,02:45:00,DRY,10.00,16.65,20.0,777.00,1.4
2020-07-10,02:50:00,DRY,8.73,16.43,21.7,777.00,1.3
2020-07-10,02:55:00,DRY,7.50,16.05,25.0,777.00,1.1
2020-07-10,03:00:00,DRY,9.00,16.20,23.3,777.00,1.2
2020-07-10,03:05:00,DRY,8.55,16.05,26.0,777.00,0.6
2020-07-10,03:10:00,DRY,9.70,16.00,26.0,777.00,1.2
2020-07-10,03:15:00,DRY,10.15,16.15,25.0,777.00,1.3
2020-07-10,03:20:00,DRY,9.43,16.23,24.3,777.00,1.1
2020-07-10,03:25:00,DRY,9.70,16.35,23.5,777.00,1.1
2020-07-10,03:30:00,DRY,9.07,16.23,24.0,777.00,1.2
2020-07-10,03:35:00,DRY,10.50,16.25,24.0,777.00,1.6
2020-07-10,03:40:00,DRY,9.93,16.20,24.7,777.00,1.2
2020-07-10,03:45:00,DRY,9.50,16.20,25.0,777.00,1.2
2020-07-10,03:50:00,DRY,10.00,16.07,26.3,777.00,1.1
2020-07-10,03:55:00,DRY,8.15,16.20,25.0,777.00,1.3
2020-07-10,04:00:00,DRY,9.93,16.17,25.7,777.00,1.1
2020-07-10,04:05:00,DRY,7.65,16.25,24.0,776.50,1.2
2020-07-10,04:10:00,DRY,8.63,16.23,25.3,777.00,1.7
2020-07-10,04:15:00,DRY,8.60,16.25,25.0,777.00,2.4
2020-07-10,04:20:00,DRY,9.90,16.37,22.0,777.00,1.6
2020-07-10,04:25:00,DRY,9.00,16.45,25.0,777.00,1.1
2020-07-10,04:30:00,DRY,9.20,16.03,27.0,776.00,1.1
2020-07-10,04:35:00,DRY,9.45,16.00,27.0,776.00,1.3
2020-07-10,04:40:00,DRY,9.07,16.10,26.3,777.00,1.4
2020-07-10,04:45:00,DRY,8.00,16.05,27.0,776.50,1.3
2020-07-10,04:50:00,DRY,8.67,16.00,27.0,776.33,1.2
2020-07-10,04:55:00,DRY,9.15,15.90,26.5,776.00,1.4
2020-07-10,05:00:00,DRY,8.67,15.90,26.3,776.33,1.2
2020-07-10,05:05:00,DRY,10.05,15.90,26.0,776.00,1.1
2020-07-10,05:10:00,DRY,8.77,15.80,26.0,776.00,0.9
2020-07-10,05:15:00,DRY,8.90,15.85,25.5,776.50,1.1
2020-07-10,05:20:00,DRY,9.90,15.80,23.7,776.00,1.3
2020-07-10,05:25:00,DRY,8.25,15.70,23.5,776.00,1.0
2020-07-10,05:30:00,DRY,9.30,15.60,24.0,776.00,1.4
2020-07-10,05:35:00,DRY,7.65,15.50,24.5,776.00,1.0
2020-07-10,05:40:00,DRY,8.37,15.53,22.7,776.00,1.3
2020-07-10,05:45:00,DRY,7.30,15.55,21.5,776.00,1.2
2020-07-10,05:50:00,DRY,7.00,15.47,23.0,776.00,1.4
2020-07-10,05:55:00,DRY,7.60,15.55,23.0,776.00,2.0
2020-07-10,06:00:00,DRY,8.93,15.53,20.7,776.00,1.4
2020-07-10,06:05:00,DRY,8.70,15.55,21.0,776.00,2.1
2020-07-10,06:10:00,DRY,7.67,15.60,20.3,776.00,2.9
2020-07-10,06:15:00,DRY,9.35,15.65,19.0,776.00,4.2
2020-07-10,06:20:00,DRY,7.43,15.63,19.3,776.00,6.4
2020-07-10,06:25:00,DRY,8.45,15.60,19.0,776.50,9.4
2020-07-10,06:30:00,DRY,8.53,15.63,18.7,776.00,15.2
2020-07-10,06:35:00,DRY,7.80,15.65,18.5,776.50,21.7
2020-07-10,06:40:00,DRY,7.60,15.77,18.0,776.00,37.7
2020-07-10,06:45:00,DRY,7.55,15.95,17.0,776.00,56.5
2020-07-10,06:50:00,DRY,8.03,15.93,17.0,776.00,82.7
2020-07-10,06:55:00,DRY,8.45,16.00,17.0,776.00,103.2
2020-07-10,07:00:00,DRY,6.40,16.10,17.7,776.33,121.7
2020-07-10,07:05:00,DRY,7.80,16.10,18.0,776.00,142.6
2020-07-10,07:10:00,DRY,6.97,16.17,18.0,776.00,166.3
2020-07-10,07:15:00,DRY,7.20,16.35,19.0,776.00,186.4
2020-07-10,07:20:00,DRY,6.60,16.53,19.3,776.00,207.6
2020-07-10,07:25:00,DRY,7.25,16.45,19.0,776.00,228.0
2020-07-10,07:30:00,DRY,6.10,16.47,19.0,776.00,253.6
2020-07-10,07:35:00,DRY,7.90,16.50,18.5,776.50,272.2
2020-07-10,07:40:00,DRY,7.77,16.67,18.7,776.00,298.1
2020-07-10,07:45:00,DRY,8.80,16.80,19.0,776.00,318.6
2020-07-10,07:50:00,DRY,6.80,16.87,19.0,776.00,344.1
2020-07-10,07:55:00,DRY,6.95,17.05,19.0,776.00,361.1
2020-07-10,08:00:00,DRY,7.47,17.33,17.7,776.00,388.2
2020-07-10,08:05:00,DRY,7.55,17.30,18.0,776.50,407.9
2020-07-10,08:10:00,DRY,7.20,17.33,18.7,776.00,430.8
2020-07-10,08:15:00,DRY,5.70,17.25,18.5,776.00,452.9
2020-07-10,08:20:00,DRY,5.43,17.13,20.0,776.67,474.2
2020-07-10,08:25:00,DRY,7.00,17.30,20.0,776.00,496.7
2020-07-10,08:30:00,DRY,6.30,17.20,19.7,776.33,516.9
2020-07-10,08:35:00,DRY,5.95,17.45,19.5,776.00,540.3
2020-07-10,08:40:00,DRY,5.13,17.50,19.3,776.00,562.7
2020-07-10,08:45:00,DRY,6.85,17.85,18.5,776.50,581.6
2020-07-10,08:50:00,DRY,6.83,18.17,18.3,776.00,600.8
2020-07-10,08:55:00,DRY,6.25,17.75,20.0,776.50,623.8
2020-07-10,09:00:00,DRY,7.83,18.03,18.3,776.00,642.1
2020-07-10,09:05:00,DRY,6.85,18.30,19.0,776.50,661.9
2020-07-10,09:10:00,DRY,5.77,18.20,17.7,776.00,682.8
2020-07-10,09:15:00,DRY,6.20,17.85,19.0,776.00,703.5
2020-07-10,09:20:00,DRY,6.43,18.33,18.7,776.00,720.9
2020-07-10,09:25:00,DRY,5.45,18.45,17.5,776.00,739.2
2020-07-10,09:30:00,DRY,5.63,18.33,18.7,776.00,758.5
2020-07-10,09:35:00,DRY,5.70,18.35,19.0,776.00,780.8
2020-07-10,09:40:00,DRY,5.03,18.53,18.3,776.00,800.9
2020-07-10,09:45:00,DRY,4.55,18.50,18.5,776.00,812.9
2020-07-10,09:50:00,DRY,6.23,18.53,18.0,776.00,833.5
2020-07-10,09:55:00,DRY,6.40,18.75,17.5,776.00,848.7
2020-07-10,10:00:00,DRY,5.40,18.70,17.3,776.00,866.2
2020-07-10,10:05:00,DRY,4.45,18.90,17.0,776.00,880.1
2020-07-10,10:10:00,DRY,5.27,19.17,16.7,776.00,898.8
2020-07-10,10:15:00,DRY,5.35,19.45,15.5,776.00,911.7
2020-07-10,10:20:00,DRY,5.57,19.47,14.7,776.00,929.0
2020-07-10,10:25:00,DRY,4.75,19.35,14.0,776.00,943.7
2020-07-10,10:30:00,DRY,5.60,19.87,13.7,776.00,953.2
2020-07-10,10:35:00,DRY,5.00,19.75,13.5,776.00,963.0
2020-07-10,10:40:00,DRY,4.70,19.93,15.0,776.00,980.3
2020-07-10,10:45:00,DRY,2.80,20.05,16.0,776.50,996.8
2020-07-10,10:50:00,DRY,4.20,20.17,13.3,776.33,1008.1
2020-07-10,10:55:00,DRY,4.90,20.35,12.5,776.50,1021.2
2020-07-10,11:00:00,DRY,4.80,20.43,13.0,776.00,1037.5
2020-07-10,11:05:00,DRY,5.85,21.00,12.0,776.00,1052.7
2020-07-10,11:10:00,DRY,4.87,20.97,14.0,776.00,1060.5
2020-07-10,11:15:00,DRY,4.95,20.95,14.5,776.00,1069.3
2020-07-10,11:20:00,DRY,5.83,20.83,15.0,776.00,1079.9
2020-07-10,11:25:00,DRY,6.00,20.85,15.0,776.00,1090.8
2020-07-10,11:30:00,DRY,7.47,20.73,14.3,776.00,1099.5
2020-07-10,11:35:00,DRY,5.80,20.95,16.5,776.50,1110.2
2020-07-10,11:40:00,DRY,5.57,20.93,15.3,776.33,1119.1
2020-07-10,11:45:00,DRY,4.95,20.55,14.5,776.50,1129.7
2020-07-10,11:50:00,DRY,5.50,21.00,15.3,776.33,1134.2
2020-07-10,11:55:00,DRY,3.90,20.90,17.5,777.00,1141.7
2020-07-10,12:00:00,DRY,3.50,20.93,16.7,776.00,1148.3
2020-07-10,12:05:00,DRY,3.35,21.15,15.0,777.00,1155.7
2020-07-10,12:10:00,DRY,4.27,20.63,16.3,776.33,1157.7
2020-07-10,12:15:00,DRY,4.50,21.30,19.0,776.50,1164.1
2020-07-10,12:20:00,DRY,4.90,21.13,16.0,776.00,1170.7
2020-07-10,12:25:00,DRY,6.75,21.30,14.5,776.50,1170.7
2020-07-10,12:30:00,DRY,4.90,21.23,15.7,776.00,1176.2
2020-07-10,12:35:00,DRY,5.35,21.20,15.0,776.00,1179.0
2020-07-10,12:40:00,DRY,6.20,21.40,14.3,776.00,1180.9
2020-07-10,12:45:00,DRY,6.20,21.35,14.5,776.00,1185.2
2020-07-10,12:50:00,DRY,5.33,21.23,16.3,776.00,1184.8
2020-07-10,12:55:00,DRY,4.15,21.40,16.5,776.00,1190.2
2020-07-10,13:00:00,DRY,5.70,21.13,15.7,776.00,1188.2
2020-07-10,13:05:00,DRY,3.80,20.95,15.5,776.00,1188.4
2020-07-10,13:10:00,DRY,5.83,21.07,18.0,776.00,1190.4
2020-07-10,13:15:00,DRY,5.55,21.25,17.0,776.00,1188.3
2020-07-10,13:20:00,DRY,5.73,21.43,16.3,776.00,1191.0
2020-07-10,13:25:00,DRY,4.15,21.45,16.0,776.00,1189.3
2020-07-10,13:30:00,DRY,4.60,21.40,16.0,776.00,1190.5
2020-07-10,13:35:00,DRY,5.60,20.80,18.0,776.00,1194.0
2020-07-10,13:40:00,DRY,3.90,21.53,15.3,776.00,1184.6
2020-07-10,13:45:00,DRY,4.25,21.65,17.5,776.00,1186.5
2020-07-10,13:50:00,DRY,6.07,21.07,17.3,776.00,1179.8
2020-07-10,13:55:00,DRY,5.50,20.80,16.0,776.00,1179.2
2020-07-10,14:00:00,DRY,4.43,20.97,15.0,776.00,1176.8
2020-07-10,14:05:00,DRY,5.05,21.05,17.0,776.00,1174.1
2020-07-10,14:10:00,DRY,4.70,21.10,16.0,776.00,1169.7
2020-07-10,14:15:00,DRY,5.05,21.05,16.0,776.00,1168.0
2020-07-10,14:20:00,DRY,4.93,20.80,14.7,776.00,1158.7
2020-07-10,14:25:00,DRY,4.80,21.15,16.5,776.00,1154.8
2020-07-10,14:30:00,DRY,5.90,21.27,16.3,776.00,1148.1
2020-07-10,14:35:00,DRY,7.20,20.70,15.0,776.00,1140.8
2020-07-10,14:40:00,DRY,5.47,20.90,16.0,776.00,1134.8
2020-07-10,14:45:00,DRY,5.05,21.05,16.0,776.00,1127.2
2020-07-10,14:50:00,DRY,5.47,21.00,15.7,776.00,1117.7
2020-07-10,14:55:00,DRY,5.45,21.05,16.5,776.00,1110.3
2020-07-10,15:00:00,DRY,6.33,20.93,16.0,776.00,1101.2
2020-07-10,15:05:00,DRY,4.85,21.05,16.5,776.00,1094.0
2020-07-10,15:10:00,DRY,5.77,20.97,15.3,775.67,1081.0
2020-07-10,15:15:00,DRY,5.55,21.05,14.0,775.00,1072.4
2020-07-10,15:20:00,DRY,5.93,21.27,15.3,775.33,1060.6
2020-07-10,15:25:00,DRY,5.90,20.90,13.5,775.50,1047.5
2020-07-10,15:30:00,DRY,7.13,20.63,15.0,775.33,1035.7
2020-07-10,15:35:00,DRY,5.80,20.80,13.5,775.00,1021.6
2020-07-10,15:40:00,DRY,6.47,20.97,14.3,775.67,1012.4
2020-07-10,15:45:00,DRY,6.30,20.60,15.0,775.00,990.2
2020-07-10,15:50:00,DRY,4.33,20.47,17.0,775.00,984.5
2020-07-10,15:55:00,DRY,5.70,20.50,16.5,775.00,969.8
2020-07-10,16:00:00,DRY,6.33,20.67,16.0,775.00,956.5
2020-07-10,16:05:00,DRY,4.85,20.80,16.5,775.00,942.0
2020-07-10,16:10:00,DRY,6.07,20.87,15.3,775.00,922.5
2020-07-10,16:15:00,DRY,4.85,20.45,14.0,775.00,910.5
2020-07-10,16:20:00,DRY,5.67,20.50,14.3,775.00,894.1
2020-07-10,16:25:00,DRY,4.95,20.60,12.0,775.00,877.5
2020-07-10,16:30:00,DRY,6.87,20.57,13.7,775.00,860.3
2020-07-10,16:35:00,DRY,5.50,20.65,15.0,775.00,844.7
2020-07-10,16:40:00,DRY,5.63,20.57,14.3,775.00,828.4
2020-07-10,16:45:00,DRY,6.80,20.30,14.5,775.00,809.5
2020-07-10,16:50:00,DRY,6.90,20.20,14.0,775.00,790.3
2020-07-10,16:55:00,DRY,7.30,20.45,10.5,775.00,772.5
2020-07-10,17:00:00,DRY,6.33,20.47,11.7,775.00,753.7
2020-07-10,17:05:00,DRY,5.95,20.10,14.0,775.00,736.2
2020-07-10,17:10:00,DRY,6.43,20.23,14.3,775.00,717.2
2020-07-10,17:15:00,DRY,5.35,20.20,15.0,775.00,695.6
2020-07-10,17:20:00,DRY,5.57,20.17,15.0,775.00,677.5
2020-07-10,17:25:00,DRY,7.00,20.10,13.5,775.00,657.2
2020-07-10,17:30:00,DRY,5.83,19.80,14.3,775.00,635.4
2020-07-10,17:35:00,DRY,6.35,19.85,12.5,775.00,610.9
2020-07-10,17:40:00,DRY,6.67,19.90,13.3,775.00,595.4
2020-07-10,17:45:00,DRY,8.10,19.55,14.5,775.00,574.1
2020-07-10,17:50:00,DRY,4.77,19.40,14.0,775.00,554.9
2020-07-10,17:55:00,DRY,7.00,19.40,15.0,775.00,534.0
2020-07-10,18:00:00,DRY,7.03,19.20,13.7,775.00,510.1
2020-07-10,18:05:00,DRY,5.10,19.20,14.0,775.00,486.8
2020-07-10,18:10:00,DRY,5.53,19.20,13.7,775.00,466.6
2020-07-10,18:15:00,DRY,6.70,19.25,13.5,775.00,445.1
2020-07-10,18:20:00,DRY,4.90,19.33,12.7,775.00,425.5
2020-07-10,18:25:00,DRY,6.70,19.05,13.0,775.00,398.9
2020-07-10,18:30:00,DRY,5.03,19.00,12.7,775.00,375.8
2020-07-10,18:35:00,DRY,6.85,19.10,13.0,775.00,351.2
2020-07-10,18:40:00,DRY,4.80,19.07,12.7,775.00,333.0
2020-07-10,18:45:00,DRY,4.55,18.85,13.5,775.00,310.6
2020-07-10,18:50:00,DRY,5.27,18.67,12.7,775.00,286.1
2020-07-10,18:55:00,DRY,4.65,18.90,13.5,775.00,266.8
2020-07-10,19:00:00,DRY,5.83,18.60,14.3,775.00,245.7
2020-07-10,19:05:00,DRY,6.50,18.55,14.0,775.00,226.1
2020-07-10,19:10:00,DRY,6.07,18.33,13.0,775.00,205.4
2020-07-10,19:15:00,DRY,5.80,18.40,15.0,775.00,184.3
2020-07-10,19:20:00,DRY,6.10,18.13,15.7,775.00,163.7
2020-07-10,19:25:00,DRY,5.90,18.10,15.5,775.00,145.5
2020-07-10,19:30:00,DRY,5.20,18.10,17.0,775.00,127.4
2020-07-10,19:35:00,DRY,6.05,18.00,18.0,775.00,103.5
2020-07-10,19:40:00,DRY,5.90,17.70,18.0,775.00,82.2
2020-07-10,19:45:00,DRY,3.85,17.70,17.5,775.00,62.5
2020-07-10,19:50:00,DRY,5.07,17.60,17.7,775.00,45.7
2020-07-10,19:55:00,DRY,3.45,17.40,18.0,775.00,32.1
2020-07-10,20:00:00,DRY,6.55,17.35,18.0,775.00,23.7
2020-07-10,20:05:00,DRY,4.00,17.20,18.0,775.00,14.4
2020-07-10,20:10:00,DRY,5.17,17.23,17.7,775.00,9.0
2020-07-10,20:15:00,DRY,4.30,17.10,15.0,775.00,6.0
2020-07-10,20:20:00,DRY,5.77,17.10,14.3,775.00,4.2
2020-07-10,20:25:00,DRY,4.35,17.10,11.5,775.00,2.9
2020-07-10,20:30:00,DRY,3.97,17.03,11.0,775.00,1.9
2020-07-10,20:35:00,DRY,4.60,17.10,11.5,775.00,1.3
2020-07-10,20:40:00,DRY,4.97,17.07,11.0,775.00,1.1
2020-07-10,20:45:00,DRY,5.55,17.10,11.0,775.00,1.0
2020-07-10,20:50:00,DRY,4.87,17.03,9.0,775.00,1.6
2020-07-10,20:55:00,DRY,6.15,17.00,9.0,775.00,1.6
2020-07-10,21:00:00,DRY,4.90,17.10,8.8,775.00,1.6
2020-07-10,21:05:00,,,,,,
2020-07-10,21:10:00,,,,,,
2020-07-10,21:15:00,DRY,5.55,17.20,11.5,776.00,2.4
2020-07-10,21:20:00,DRY,5.17,17.20,11.0,776.00,0.9
2020-07-10,21:25:00,DRY,4.10,17.25,12.5,776.00,0.8
2020-07-10,21:30:00,DRY,4.23,17.23,9.3,776.00,1.2
2020-07-10,21:35:00,DRY,1.75,17.25,11.5,776.00,2.2
2020-07-10,21:40:00,DRY,4.73,17.23,10.0,776.00,1.2
2020-07-10,21:45:00,DRY,4.25,17.40,11.0,776.00,1.6
2020-07-10,21:50:00,DRY,4.37,17.33,10.7,776.00,1.0
2020-07-10,21:55:00,DRY,3.25,17.35,8.5,776.00,1.3
2020-07-10,22:00:00,DRY,4.77,17.27,7.0,776.00,1.2
2020-07-10,22:05:00,DRY,4.20,17.40,7.5,776.00,1.2
2020-07-10,22:10:00,DRY,3.67,17.27,8.0,776.00,1.4
2020-07-10,22:15:00,DRY,3.00,17.45,9.0,776.00,1.6
2020-07-10,22:20:00,DRY,3.70,17.67,8.3,776.00,1.0
2020-07-10,22:25:00,DRY,3.75,17.70,7.5,776.00,1.4
2020-07-10,22:30:00,DRY,3.67,17.57,8.0,776.00,1.3
2020-07-10,22:35:00,DRY,4.70,17.50,8.0,776.00,1.4
2020-07-10,22:40:00,DRY,4.03,17.53,8.0,776.00,1.3
2020-07-10,22:45:00,DRY,5.20,17.55,7.5,776.00,1.1
2020-07-10,22:50:00,DRY,4.93,17.57,7.3,776.00,0.9
2020-07-10,22:55:00,DRY,4.00,17.70,8.0,776.00,0.9
2020-07-10,23:00:00,DRY,2.90,17.67,9.0,776.00,1.6
2020-07-10,23:05:00,DRY,3.90,17.65,9.0,776.00,1.4
2020-07-10,23:10:00,DRY,2.93,17.57,7.7,776.00,1.3
2020-07-10,23:15:00,DRY,3.95,17.40,7.0,776.00,1.1
2020-07-10,23:20:00,DRY,4.70,17.57,8.7,776.00,1.3
2020-07-10,23:25:00,DRY,4.95,17.65,9.0,776.00,1.4
2020-07-10,23:30:00,DRY,4.83,17.80,11.0,776.00,1.0
2020-07-10,23:35:00,DRY,4.30,17.80,10.5,776.00,1.3
2020-07-10,23:40:00,DRY,3.87,17.63,9.7,776.00,1.5
2020-07-10,23:45:00,DRY,4.55,17.55,10.5,776.00,1.2
2020-07-10,23:50:00,DRY,3.77,17.73,11.0,776.00,1.2
2020-07-10,23:55:00,DRY,3.90,17.75,10.0,776.00,1.4
2020-07-11,00:00:00,DRY,3.53,17.77,9.3,776.00,1.5
2020-07-11,00:05:00,DRY,4.05,17.60,9.5,776.00,1.8
2020-07-11,00:10:00,DRY,3.30,17.63,9.3,776.00,1.3
2020-07-11,00:15:00,DRY,3.95,17.55,9.0,776.00,0.9
2020-07-11,00:20:00,DRY,3.30,17.53,9.7,775.67,1.3
2020-07-11,00:25:00,DRY,5.45,17.70,10.5,775.00,1.4
2020-07-11,00:30:00,DRY,4.40,17.63,10.7,775.00,1.0
2020-07-11,00:35:00,DRY,4.45,17.65,10.0,775.00,1.1
2020-07-11,00:40:00,DRY,4.77,17.57,10.0,775.00,1.7
2020-07-11,00:45:00,DRY,4.50,17.55,8.5,775.00,1.1
2020-07-11,00:50:00,DRY,4.00,17.47,8.7,775.00,1.0
2020-07-11,00:55:00,DRY,3.70,17.50,8.0,775.00,1.3
2020-07-11,01:00:00,DRY,4.73,17.47,7.7,775.00,1.7
2020-07-11,01:05:00,DRY,4.15,17.30,7.5,775.00,1.0
2020-07-11,01:10:00,DRY,4.23,17.43,7.7,775.00,1.0
2020-07-11,01:15:00,DRY,4.65,17.45,7.5,775.00,1.5
2020-07-11,01:20:00,DRY,4.50,17.53,8.3,775.00,1.2
2020-07-11,01:25:00,DRY,4.15,17.55,9.0,775.00,1.0
2020-07-11,01:30:00,DRY,5.07,17.57,10.0,775.00,1.2
2020-07-11,01:35:00,DRY,3.95,17.45,9.5,775.00,0.7
2020-07-11,01:40:00,DRY,5.03,17.53,10.3,775.00,1.6
2020-07-11,01:45:00,DRY,3.70,17.35,8.5,775.00,1.1
2020-07-11,01:50:00,DRY,4.17,17.50,9.0,775.00,1.0
2020-07-11,01:55:00,DRY,3.85,17.20,7.5,775.00,1.1
2020-07-11,02:00:00,DRY,5.33,17.10,7.0,775.00,1.7
2020-07-11,02:05:00,DRY,4.65,17.15,7.0,775.00,1.2
2020-07-11,02:10:00,DRY,4.83,17.07,7.0,775.00,0.9
2020-07-11,02:15:00,DRY,4.40,17.00,6.0,775.00,2.2
2020-07-11,02:20:00,DRY,4.97,16.67,6.3,775.00,1.2
2020-07-11,02:25:00,DRY,4.00,16.55,6.0,775.00,1.4
2020-07-11,02:30:00,DRY,5.33,16.50,6.0,775.00,1.2
2020-07-11,02:35:00,DRY,5.50,16.50,6.0,774.50,1.4
2020-07-11,02:40:00,DRY,3.97,16.37,6.3,775.00,1.6
2020-07-11,02:45:00,DRY,4.65,16.35,6.5,774.50,2.2
2020-07-11,02:50:00,DRY,3.77,16.13,7.7,774.67,1.7
2020-07-11,02:55:00,DRY,3.75,15.80,8.0,775.00,1.2
2020-07-11,03:00:00,DRY,4.40,15.80,8.3,774.33,1.2
2020-07-11,03:05:00,DRY,4.50,15.85,9.0,774.50,1.4
2020-07-11,03:10:00,DRY,5.57,15.87,8.3,774.00,1.4
2020-07-11,03:15:00,DRY,4.15,16.05,8.0,774.00,1.1
2020-07-11,03:20:00,DRY,4.40,16.17,8.0,774.00,1.0
2020-07-11,03:25:00,DRY,4.85,16.05,8.0,774.00,1.2
2020-07-11,03:30:00,DRY,5.43,15.93,8.3,774.00,1.2
2020-07-11,03:35:00,DRY,5.00,15.95,8.5,774.00,1.3
2020-07-11,03:40:00,DRY,4.07,15.77,9.0,774.00,0.8
2020-07-11,03:45:00,DRY,4.25,15.70,9.0,774.00,1.2
2020-07-11,03:50:00,DRY,4.53,15.87,8.7,774.00,1.2
2020-07-11,03:55:00,DRY,4.50,16.05,8.0,774.00,1.4
2020-07-11,04:00:00,DRY,5.00,16.17,7.7,774.00,1.1
2020-07-11,04:05:00,DRY,5.10,16.45,6.5,774.00,1.3
2020-07-11,04:10:00,DRY,3.80,16.30,7.3,774.00,1.4
2020-07-11,04:15:00,DRY,4.45,16.20,8.5,774.00,1.0
2020-07-11,04:20:00,DRY,5.07,16.07,8.0,774.00,1.8
2020-07-11,04:25:00,DRY,4.75,15.90,8.0,774.00,1.2
2020-07-11,04:30:00,DRY,4.10,15.83,8.7,774.00,1.5
2020-07-11,04:35:00,DRY,5.25,15.75,9.0,774.00,1.1
2020-07-11,04:40:00,DRY,5.40,15.70,9.0,774.00,1.1
2020-07-11,04:45:00,DRY,4.65,15.80,8.5,774.00,1.1
2020-07-11,04:50:00,DRY,5.17,15.80,8.7,774.00,1.5
2020-07-11,04:55:00,DRY,5.25,15.75,8.5,774.00,1.0
2020-07-11,05:00:00,DRY,4.47,15.93,8.0,774.00,1.3
2020-07-11,05:05:00,DRY,4.55,15.90,8.0,774.00,1.1
2020-07-11,05:10:00,DRY,5.80,15.93,8.0,774.00,1.4
2020-07-11,05:15:00,DRY,4.75,16.05,8.0,774.00,1.1
2020-07-11,05:20:00,DRY,4.77,15.93,7.7,774.00,1.1
2020-07-11,05:25:00,DRY,5.45,15.90,8.0,774.00,1.2
2020-07-11,05:30:00,DRY,4.23,15.77,8.0,774.00,1.0
2020-07-11,05:35:00,DRY,5.05,15.70,8.0,774.00,1.2
2020-07-11,05:40:00,DRY,5.17,15.73,8.7,774.00,1.5
2020-07-11,05:45:00,DRY,5.00,15.65,9.0,774.00,1.3
2020-07-11,05:50:00,DRY,5.17,15.73,8.3,774.00,1.2
2020-07-11,05:55:00,DRY,5.70,15.70,9.0,774.00,1.2
2020-07-11,06:00:00,DRY,5.37,15.63,8.7,774.00,1.5
2020-07-11,06:05:00,DRY,5.60,15.90,8.0,774.00,2.2
2020-07-11,06:10:00,DRY,4.67,16.00,8.0,774.00,3.1
2020-07-11,06:15:00,DRY,5.95,16.20,8.0,774.00,4.3
2020-07-11,06:20:00,DRY,5.30,16.20,8.3,774.00,6.5
2020-07-11,06:25:00,DRY,5.05,16.25,8.5,774.00,10.1
2020-07-11,06:30:00,DRY,4.93,16.30,8.3,774.00,18.1
2020-07-11,06:35:00,DRY,5.00,16.25,7.5,774.00,22.7
2020-07-11,06:40:00,DRY,5.27,16.27,7.0,774.00,46.4
2020-07-11,06:45:00,DRY,4.30,16.35,7.0,774.00,72.7
2020-07-11,06:50:00,DRY,5.87,16.63,9.0,774.00,97.1
2020-07-11,06:55:00,DRY,4.40,16.75,8.0,774.50,117.4
2020-07-11,07:00:00,DRY,5.10,16.87,10.3,774.33,137.5
2020-07-11,07:05:00,DRY,4.65,16.90,8.5,774.00,157.9
2020-07-11,07:10:00,DRY,5.27,17.07,8.3,774.33,180.7
2020-07-11,07:15:00,DRY,5.60,17.10,8.5,774.00,204.1
2020-07-11,07:20:00,DRY,3.93,17.13,8.7,774.33,226.8
2020-07-11,07:25:00,DRY,5.50,17.35,9.5,774.00,246.7
2020-07-11,07:30:00,DRY,3.97,17.37,8.7,774.00,269.9
2020-07-11,07:35:00,DRY,4.45,17.35,8.0,774.50,292.4
2020-07-11,07:40:00,DRY,5.47,17.37,7.7,774.00,315.9
2020-07-11,07:45:00,DRY,6.25,17.30,8.5,774.50,337.9
2020-07-11,07:50:00,DRY,5.23,17.17,8.0,774.33,360.7
2020-07-11,07:55:00,DRY,5.60,17.20,7.5,774.50,382.4
2020-07-11,08:00:00,DRY,5.43,17.37,7.7,774.33,406.3
2020-07-11,08:05:00,DRY,5.10,17.35,8.0,774.50,429.2
2020-07-11,08:10:00,DRY,5.70,17.47,7.7,774.67,450.7
2020-07-11,08:15:00,DRY,4.30,17.50,9.5,774.50,473.5
2020-07-11,08:20:00,DRY,4.90,17.37,9.7,775.00,494.9
2020-07-11,08:25:00,DRY,4.20,17.55,9.0,775.00,517.0
2020-07-11,08:30:00,DRY,3.83,17.30,11.0,774.33,540.6
2020-07-11,08:35:00,DRY,3.80,17.40,9.5,774.00,561.2
2020-07-11,08:40:00,DRY,5.27,17.53,10.0,774.33,583.0
2020-07-11,08:45:00,DRY,5.90,17.60,10.5,774.00,604.0
2020-07-11,08:50:00,DRY,4.17,17.77,11.0,774.00,624.8
2020-07-11,08:55:00,DRY,3.30,17.85,9.5,775.00,644.7
2020-07-11,09:00:00,DRY,3.90,18.00,10.0,774.33,665.1
2020-07-11,09:05:00,DRY,4.50,18.35,8.5,774.50,686.0
2020-07-11,09:10:00,DRY,3.90,18.03,8.7,774.00,706.0
2020-07-11,09:15:00,DRY,5.35,18.40,9.0,774.50,726.0
2020-07-11,09:20:00,DRY,5.00,18.53,8.7,774.00,745.1
2020-07-11,09:25:00,DRY,5.00,18.45,8.5,774.50,765.8
2020-07-11,09:30:00,DRY,5.43,18.50,9.0,774.67,784.4
2020-07-11,09:35:00,DRY,3.40,18.55,10.0,774.50,802.5
2020-07-11,09:40:00,DRY,4.97,18.47,10.7,774.67,821.7
2020-07-11,09:45:00,DRY,5.10,18.45,12.0,774.50,840.0
2020-07-11,09:50:00,DRY,4.67,18.83,12.3,775.00,856.0
2020-07-11,09:55:00,DRY,5.20,18.95,11.5,774.50,875.5
2020-07-11,10:00:00,DRY,4.20,19.07,12.7,775.00,891.7
2020-07-11,10:05:00,DRY,4.60,19.10,11.5,775.00,907.0
2020-07-11,10:10:00,DRY,5.07,19.00,12.3,775.00,921.9
2020-07-11,10:15:00,DRY,3.95,18.90,13.0,775.00,938.4
2020-07-11,10:20:00,DRY,5.17,19.40,12.0,775.00,953.3
2020-07-11,10:25:00,DRY,5.05,19.40,11.5,775.00,968.2
2020-07-11,10:30:00,DRY,4.90,19.50,11.0,775.00,982.3
2020-07-11,10:35:00,DRY,3.40,19.25,12.5,775.00,996.1
2020-07-11,10:40:00,DRY,4.87,19.47,12.7,775.00,1010.2
2020-07-11,10:45:00,DRY,5.80,19.45,12.5,775.00,1023.5
2020-07-11,10:50:00,DRY,4.57,19.60,12.3,775.00,1036.6
2020-07-11,10:55:00,DRY,2.95,19.70,11.5,775.00,1048.3
2020-07-11,11:00:00,DRY,3.63,19.67,11.0,775.00,1058.9
2020-07-11,11:05:00,DRY,4.70,19.55,13.5,775.00,1065.3
2020-07-11,11:10:00,DRY,4.83,19.53,11.3,775.00,1082.1
2020-07-11,11:15:00,DRY,5.35,19.55,12.5,775.00,1089.2
2020-07-11,11:20:00,DRY,4.20,19.57,14.3,775.00,1102.4
2020-07-11,11:25:00,DRY,6.30,19.55,12.0,775.00,1112.3
2020-07-11,11:30:00,DRY,4.25,19.60,13.5,775.00,1119.0
2020-07-11,11:35:00,DRY,3.40,19.50,11.0,775.00,1131.8
2020-07-11,11:40:00,DRY,4.80,19.53,14.0,775.00,1137.9
2020-07-11,11:45:00,DRY,3.60,19.70,13.0,775.00,1147.3
2020-07-11,11:50:00,DRY,4.77,19.53,13.7,775.00,1153.9
2020-07-11,11:55:00,DRY,4.90,19.70,15.0,775.00,1159.7
2020-07-11,12:00:00,DRY,4.80,19.77,12.7,775.00,1165.8
2020-07-11,12:05:00,DRY,4.90,19.95,13.0,775.00,1174.2
2020-07-11,12:10:00,DRY,3.93,19.67,14.0,775.00,1177.3
2020-07-11,12:15:00,DRY,4.55,19.75,14.5,775.00,1182.8
2020-07-11,12:20:00,DRY,3.40,19.40,13.7,775.00,1187.3
2020-07-11,12:25:00,DRY,3.85,19.50,14.0,775.00,1191.0
2020-07-11,12:30:00,DRY,4.73,20.03,13.0,775.00,1193.0
2020-07-11,12:35:00,DRY,3.60,19.95,14.0,775.00,1201.3
2020-07-11,12:40:00,DRY,3.73,20.07,14.0,775.00,1198.9
2020-07-11,12:45:00,DRY,5.50,20.10,13.0,775.00,1202.9
2020-07-11,12:50:00,DRY,2.60,20.07,13.0,775.00,1204.1
2020-07-11,12:55:00,DRY,4.55,20.35,13.0,775.00,1205.5
2020-07-11,13:00:00,DRY,4.13,19.90,14.0,775.00,1208.2
2020-07-11,13:05:00,DRY,4.20,20.60,14.0,775.00,1207.4
2020-07-11,13:10:00,DRY,4.60,20.83,13.7,775.00,1209.9
2020-07-11,13:15:00,DRY,3.85,20.10,15.5,775.00,1208.3
2020-07-11,13:20:00,DRY,4.43,19.80,14.3,775.00,1208.9
2020-07-11,13:25:00,DRY,6.70,20.25,13.0,775.00,1209.0
2020-07-11,13:30:00,DRY,5.70,19.50,12.0,775.00,1207.8
2020-07-11,13:35:00,DRY,4.00,19.60,14.0,775.00,1206.3
2020-07-11,13:40:00,DRY,4.53,19.83,13.0,775.00,1206.2
2020-07-11,13:45:00,DRY,5.35,20.00,13.5,775.00,1203.1
2020-07-11,13:50:00,DRY,4.10,19.90,13.7,775.00,1203.5
2020-07-11,13:55:00,DRY,3.20,20.25,14.0,775.00,1200.8
2020-07-11,14:00:00,DRY,3.27,19.77,13.3,775.00,1199.2
2020-07-11,14:05:00,DRY,4.20,20.55,13.5,775.00,1194.3
2020-07-11,14:10:00,DRY,5.73,20.07,13.3,775.00,1189.2
2020-07-11,14:15:00,DRY,4.90,20.40,13.0,775.00,1184.0
2020-07-11,14:20:00,DRY,4.97,19.53,12.7,775.00,1181.3
2020-07-11,14:25:00,DRY,7.15,20.15,12.5,775.00,1176.5
2020-07-11,14:30:00,DRY,5.90,19.77,12.7,775.00,1170.2
2020-07-11,14:35:00,DRY,4.30,19.85,10.5,775.00,1162.9